Voltar ao catálogo

LEGION 3

AtivoCiênciaVLEO
NORAD 60452·PAYLOAD·🇺🇸 United States

Lançado Aug 15, 2024 de Cape Canaveral Space Force Station

Loading…

Próximas Passagens (próximas 24 horas)

TLE

AtualizadoSource: Space-Track

Época: Sep 14, 2026, 11:49 UTC

1 60452U 24146A   26257.49300585  .00002673  00000-0  15020-3 0  9999
2 60452  45.0008 271.7365 0008212 325.9347  34.1003 15.16025123115579

Acompanhe LEGION 3 em tempo real com AllMySat

Download on the App Store